Location: Mascot Post Office (historical)
(40.2645°N, 99.5462°W)
Time: 01:59:56
(UTC+00:00)

SL-8 R/B - Pass Details

Date: 14 July 2020
Orbit: 656 x 667 km, 48.4° (Epoch: 14 August)

Event Time Altitude Azimuth Distance (km) Brightness Sun altitude
Exits shadow 08:18:21 37° 289° (WNW) 1,038 4.6 -24.4°
Maximum altitude 08:19:49 50° 338° (NNW) 847 4.4 -24.3°
Drops below altitude 10° 08:24:30 10° 54° (NE) 2,081 7.1 -23.9°
Sets 08:26:55 0° 60° (ENE) 2,993 7.9 -23.7°
